[[{"header":{"parameterUnit":"m.s-1","parameterCategory":1,"la1":30.2991,"la2":30.254,"lo1":-89.0895,"lo2":-89.0444,"dy":0.0017,"dx":0.0017,"nx":28,"ny":28,"refTime":"2024-06-15T03:00:00:Z","depth":0,"parameterNumber":2,"parameterNumberName":"U-component_of_WINDS"},"data":[0,0,0,0,0,0,0,0,0,0,0,0,0,0,0,0,0,0,0,0,0,0,0,0,0,0,0,0,0,0,0,0,0,0,0,0,0,0,0,0,0,0,0,0,0,0,0,0,0,0,0,0,0,0,0,0,0,0,-2.3506,-2.3507,0,-2.3557,-2.3557,-2.3558,-2.355,-2.3549,-2.3549,-2.3548,-2.36,-2.3602,-2.3604,0,0,0,0,0,0,0,0,0,0,0,0,0,-2.3404,-2.3406,-2.3506,-2.3507,-2.3507,-2.3557,-2.3557,-2.3558,-2.355,-2.3549,-2.3548,-2.3547,-2.3599,-2.3602,-2.3604,0,0,0,0,0,0,0,0,0,0,0,0,0,-2.3451,-2.3406,-2.3506,-2.351,-2.351,-2.3557,-2.3558,-2.3558,-2.3551,-2.3549,-2.3548,-2.3547,-2.3598,-2.3602,-2.3605,-2.3651,0,0,-2.3615,-2.3616,0,0,0,0,0,0,0,0,-2.3448,-2.3454,-2.3508,-2.3509,-2.351,-2.3546,-2.354,-2.3589,-2.3551,-2.3535,-2.3548,-2.3546,-2.3583,-2.3587,-2.36,-2.3653,-2.3656,-2.3615,-2.3617,-2.3619,-2.3619,0,0,0,0,0,0,0,-2.3445,-2.3452,-2.3526,-2.3509,-2.351,-2.3509,-2.3514,-2.355,-2.3566,-2.3537,-2.3536,-2.3542,-2.3583,-2.3597,-2.3601,-2.3656,-2.3615,-2.3618,-2.362,-2.3621,-2.3751,-2.3753,0,0,0,0,0,0,-2.344,-2.3449,-2.3525,-2.3528,-2.3475,-2.3512,-2.3518,-2.3536,-2.3565,-2.3569,-2.3543,-2.3542,-2.3592,-2.3597,-2.3603,-2.3659,-2.3619,-2.3622,-2.3623,-2.375,-2.3752,-2.3753,0,0,0,0,0,0,-2.3438,-2.3447,-2.3523,-2.3489,-2.3498,-2.3515,-2.3535,-2.3537,-2.3551,-2.357,-2.3573,-2.3554,-2.3591,-2.3598,-2.3639,-2.3661,-2.3623,-2.3626,-2.3748,-2.375,-2.3752,-2.3773,0,0,0,0,0,0,-2.3435,-2.3446,-2.3464,-2.3489,-2.35,-2.3558,-2.3537,-2.3539,-2.3557,-2.3555,-2.3581,-2.3584,-2.359,-2.3634,-2.3642,-2.3665,-2.3629,-2.3746,-2.3749,-2.3752,-2.377,-2.3775,-2.378,0,0,0,0,0,-2.3432,-2.3468,-2.3465,-2.3474,-2.3522,-2.3559,-2.3566,-2.3572,-2.3558,-2.3576,-2.3589,-2.3584,-2.3657,-2.3639,-2.3648,-2.3671,-2.3745,-2.3748,-2.3751,-2.3768,-2.3774,-2.378,0,0,0,0,0,0,-2.3445,-2.3471,-2.3468,-2.3513,-2.3534,-2.3558,-2.3581,-2.3578,-2.3603,-2.3601,-2.3607,-2.3613,-2.3655,-2.3667,-2.3646,-2.3718,-2.3699,-2.3705,-2.3709,-2.3715,-2.372,-2.3716,-2.3631,0,0,0,0,0,-2.3453,-2.3481,-2.3502,-2.354,-2.3551,-2.3564,-2.358,-2.3583,-2.3605,-2.3614,-2.363,-2.3651,-2.3679,-2.3698,-2.3724,-2.3772,-2.3778,-2.3793,-2.3797,-2.3801,-2.3806,-2.3832,-2.384,-2.3764,-2.3764,-2.3764,0,0,-2.347,-2.3488,-2.3505,-2.3543,-2.356,-2.3589,-2.3571,-2.3603,-2.3624,-2.3619,-2.3659,-2.3671,-2.3695,-2.374,-2.376,-2.3751,-2.3828,-2.3805,-2.3808,-2.3811,-2.3837,-2.3844,-2.385,-2.3766,-2.3766,-2.3766,0,0,-2.3517,-2.3532,-2.3566,-2.3583,-2.3608,-2.3617,-2.3625,-2.3649,-2.3657,-2.3697,-2.3694,-2.3719,-2.3767,-2.3785,-2.3801,-2.3854,-2.385,-2.3863,-2.3888,-2.3914,-2.392,-2.3925,-2.3945,-2.3952,-2.3867,-2.3867,-2.3867,0,-2.3535,-2.3578,-2.3584,-2.3615,-2.3632,-2.3629,-2.3663,-2.3679,-2.3712,-2.3724,-2.3713,-2.3774,-2.379,-2.3839,-2.3852,-2.3864,-2.3874,-2.386,-2.3918,-2.3924,-2.3929,-2.3948,-2.3955,-2.3868,-2.3868,-2.3868,-2.3868,0,-2.36,-2.363,-2.3654,-2.3686,-2.3705,-2.3738,-2.3749,-2.3768,-2.3769,-2.3779,-2.382,-2.384,-2.3871,-2.3882,-2.3884,-2.3932,-2.3926,-2.3917,-2.3898,-2.3937,-2.3955,-2.3962,-2.387,-2.387,-2.387,-2.3869,0,0,-2.3656,-2.3691,-2.3699,-2.3714,-2.3741,-2.3765,-2.3798,-2.3828,-2.3845,-2.3867,-2.3895,-2.3936,-2.3928,-2.3946,-2.3949,-2.3972,-2.4013,-2.396,-2.3961,-2.397,-2.4068,-2.4075,-2.4084,-2.4011,-2.4012,-2.4013,-2.4066,0,-2.3706,-2.3764,-2.377,-2.3822,-2.385,-2.3846,-2.3875,-2.3895,-2.3905,-2.3931,-2.3942,-2.3971,-2.3958,-2.3969,-2.3991,-2.4004,-2.4033,-2.4,-2.4038,-2.4039,-2.4032,-2.4093,-2.4101,-2.415,-2.4073,-2.4075,-2.4075,0,-2.3772,-2.3796,-2.3851,-2.3875,-2.3887,-2.3912,-2.3941,-2.3965,-2.3988,-2.3994,-2.4013,-2.4014,-2.4048,-2.4028,-2.4075,-2.4052,-2.4068,-2.4077,-2.4079,-2.4083,-2.406,-2.41,-2.4166,-2.4173,-2.4086,-2.4085,-2.4085,0,-2.3808,-2.3855,-2.3894,-2.3906,-2.3935,-2.3953,-2.3966,-2.3987,-2.4005,-2.403,-2.4042,-2.407,-2.4086,-2.4108,-2.4117,-2.4101,-2.4164,-2.4144,-2.4171,-2.4171,-2.4185,-2.4184,-2.4255,-2.4194,-2.4193,-2.4193,-2.4193,0,-2.3864,-2.3898,-2.3911,-2.3935,-2.3973,-2.3979,-2.4017,-2.4029,-2.4048,-2.4074,-2.4073,-2.4098,-2.4107,-2.4134,-2.414,-2.4179,-2.4186,-2.4192,-2.4194,-2.4193,-2.4192,-2.4204,-2.4201,-2.4195,-2.4195,-2.4194,-2.4194,0,-2.3912,-2.3922,-2.3964,-2.3988,-2.3994,-2.4021,-2.4042,-2.4065,-2.4074,-2.4108,-2.4117,-2.4132,-2.4163,-2.4173,-2.4211,-2.4216,-2.4261,-2.4259,-2.4254,-2.4254,-2.428,-2.4278,-2.4362,-2.4374,-2.4304,-2.4304,-2.4305,0,-2.3947,-2.3973,-2.3999,-2.4016,-2.403,-2.4058,-2.4076,-2.4084,-2.4103,-2.4131,-2.4151,-2.4182,-2.4207,-2.4258,-2.4272,-2.4301,-2.4301,-2.4328,-2.4305,-2.4304,-2.4302,-2.4301,-2.4304,-2.4333,-2.4333,-2.4334,-2.4334,0,-2.4008,-2.4012,-2.4038,-2.4066,-2.4088,-2.4111,-2.4133,-2.4147,-2.4157,-2.4179,-2.4211,-2.4231,-2.4269,-2.43,-2.433,-2.4343,-2.4341,-2.4341,-2.4349,-2.4349,-2.4345,-2.4349,-2.4266,-2.434,-2.4339,-2.4339,-2.4338,-2.4338,-2.4052,-2.4075,-2.4097,-2.4126,-2.4143,-2.4164,-2.4187,-2.4199,-2.4226,-2.4258,-2.426,-2.4295,-2.4318,-2.4357,-2.4372,-2.4399,-2.4392,-2.4403,-2.4406,-2.4409,-2.4411,-2.434,-2.4405,-2.4405,-2.4404,-2.4404,-2.4404,0,-2.4114,-2.4128,-2.4155,-2.4185,-2.4209,-2.4203,-2.4227,-2.4247,-2.4278,-2.4299,-2.4323,-2.436,-2.439,-2.4407,-2.4438,-2.4456,-2.4456,-2.4464,-2.4463,-2.4467,-2.4416,-2.4407,-2.4464,-2.4464,-2.4464,-2.4464,-2.4464,-2.4464,-2.415,-2.4189,-2.4195,-2.4242,-2.4256,-2.429,-2.4304,-2.4323,-2.434,-2.4381,-2.4406,-2.4417,-2.4436,-2.4468,-2.4495,-2.4499,-2.4511,-2.452,-2.4524,-2.4476,-2.447,-2.4464,-2.4456,-2.4522,-2.4522,-2.4572,-2.4573,-2.4573]},{"header":{"parameterUnit":"m.s-1","parameterCategory":1,"la1":30.2991,"la2":30.254,"lo1":-89.0895,"lo2":-89.0444,"dy":0.0017,"dx":0.0017,"nx":28,"ny":28,"refTime":"2024-06-15T03:00:00:Z","depth":0,"parameterNumber":3,"parameterNumberName":"V-component_of_WINDS"},"data":[0,0,0,0,0,0,0,0,0,0,0,0,0,0,0,0,0,0,0,0,0,0,0,0,0,0,0,0,0,0,0,0,0,0,0,0,0,0,0,0,0,0,0,0,0,0,0,0,0,0,0,0,0,0,0,0,0,0,3.9556,3.9556,0,3.9599,3.96,3.96,3.9608,3.9608,3.9607,3.9607,3.965,3.9651,3.9653,0,0,0,0,0,0,0,0,0,0,0,0,0,3.9479,3.948,3.9556,3.9556,3.9557,3.9599,3.96,3.96,3.9608,3.9608,3.9607,3.9607,3.9649,3.9651,3.9653,0,0,0,0,0,0,0,0,0,0,0,0,0,3.9516,3.9481,3.9556,3.9566,3.9567,3.9599,3.96,3.9601,3.9608,3.9608,3.9607,3.9607,3.9649,3.9651,3.9653,3.9677,0,0,3.966,3.9661,0,0,0,0,0,0,0,0,3.9514,3.9519,3.9564,3.9565,3.9567,3.9598,3.9589,3.9626,3.9608,3.9593,3.9607,3.9606,3.9633,3.9636,3.9646,3.9679,3.9681,3.966,3.9661,3.9662,3.9663,0,0,0,0,0,0,0,3.9512,3.9517,3.9573,3.9564,3.9566,3.9568,3.9573,3.9596,3.9615,3.9594,3.9595,3.96,3.9633,3.9643,3.9647,3.9682,3.966,3.9662,3.9663,3.9664,3.974,3.974,0,0,0,0,0,0,3.9507,3.9515,3.9572,3.9574,3.9539,3.957,3.9575,3.9588,3.9615,3.9618,3.96,3.96,3.964,3.9644,3.9648,3.9679,3.9662,3.9664,3.9666,3.9739,3.974,3.9741,0,0,0,0,0,0,3.9506,3.9512,3.957,3.9545,3.9552,3.9572,3.9586,3.9589,3.9599,3.962,3.9623,3.9607,3.964,3.9645,3.9671,3.9681,3.9665,3.9667,3.9738,3.9739,3.974,3.9741,0,0,0,0,0,0,3.9503,3.9512,3.9521,3.9545,3.9554,3.9591,3.9587,3.9591,3.9603,3.9604,3.9627,3.963,3.964,3.9667,3.9673,3.9684,3.9669,3.9737,3.9739,3.974,3.974,3.9742,3.9744,0,0,0,0,0,3.9501,3.9519,3.9521,3.9528,3.9566,3.9592,3.9597,3.9608,3.9604,3.9614,3.9627,3.9629,3.9679,3.967,3.9676,3.9688,3.9737,3.9738,3.974,3.9739,3.9742,3.9744,0,0,0,0,0,0,3.9493,3.9522,3.9525,3.9551,3.9569,3.9593,3.9605,3.961,3.9629,3.9628,3.9641,3.9646,3.9671,3.9682,3.9671,3.9714,3.9708,3.9711,3.9705,3.9708,3.9709,3.9706,3.9671,0,0,0,0,0,3.9495,3.9515,3.9538,3.9559,3.9568,3.9585,3.9597,3.9605,3.9623,3.9631,3.9646,3.9664,3.9684,3.9696,3.9716,3.9742,3.9748,3.9754,3.9755,3.9757,3.9759,3.9775,3.9778,3.9746,3.9746,3.9746,0,0,3.9498,3.9516,3.9527,3.9558,3.9573,3.9593,3.9591,3.9612,3.9627,3.9634,3.9659,3.9671,3.9692,3.9719,3.9731,3.9729,3.9769,3.9759,3.976,3.9761,3.9777,3.978,3.9783,3.9747,3.9747,3.9746,0,0,3.9514,3.953,3.9549,3.9565,3.9588,3.96,3.9605,3.9629,3.9637,3.9664,3.967,3.9688,3.9721,3.9737,3.9749,3.9774,3.9776,3.978,3.9788,3.9804,3.9806,3.9809,3.9818,3.9821,3.9782,3.9782,3.9782,0,3.9515,3.9545,3.9559,3.958,3.9594,3.9603,3.9623,3.9637,3.9665,3.9674,3.9672,3.9716,3.973,3.9761,3.9768,3.9777,3.9783,3.9776,3.9805,3.9807,3.981,3.9819,3.9822,3.9782,3.9782,3.9782,3.9782,0,3.9545,3.9567,3.958,3.9608,3.9623,3.9644,3.9661,3.9675,3.9682,3.9694,3.9722,3.974,3.9764,3.9772,3.9778,3.9805,3.9803,3.9802,3.9796,3.9813,3.9822,3.9825,3.9782,3.9782,3.9782,3.9782,0,0,3.9555,3.9593,3.9598,3.9611,3.9639,3.9656,3.9677,3.9702,3.9714,3.9734,3.9752,3.9782,3.9783,3.9797,3.9805,3.9819,3.9839,3.9817,3.9818,3.9821,3.987,3.987,3.9873,3.9842,3.9842,3.9843,3.9868,0,3.9575,3.9614,3.9628,3.966,3.9681,3.9691,3.971,3.9729,3.9742,3.9761,3.9775,3.9796,3.9795,3.9804,3.9818,3.9833,3.9849,3.9832,3.9859,3.986,3.9853,3.9878,3.9877,3.99,3.9872,3.9872,3.9873,0,3.9601,3.9623,3.9658,3.9685,3.9694,3.9711,3.9736,3.9754,3.9776,3.9785,3.9802,3.981,3.9834,3.9828,3.9861,3.9849,3.9861,3.9871,3.9872,3.9874,3.9866,3.988,3.9907,3.991,3.9878,3.9878,3.9877,0,3.9606,3.9644,3.967,3.9681,3.9713,3.9725,3.9739,3.9761,3.9776,3.9797,3.9807,3.9831,3.9844,3.9863,3.9877,3.9872,3.991,3.9904,3.9917,3.9917,3.9924,3.9923,3.9952,3.9933,3.9933,3.9932,3.9932,0,3.9625,3.9646,3.9672,3.9688,3.9712,3.9729,3.9753,3.9767,3.9787,3.9806,3.9817,3.9835,3.9853,3.9874,3.9886,3.9912,3.9918,3.9925,3.9928,3.9924,3.9923,3.9931,3.993,3.9933,3.9933,3.9933,3.9933,0,3.9633,3.9652,3.9681,3.971,3.9718,3.9734,3.9759,3.9775,3.979,3.9814,3.9821,3.9843,3.9868,3.9885,3.9916,3.9925,3.9953,3.9956,3.9945,3.9947,3.9958,3.9957,3.9994,4.0,3.9976,3.9977,3.9977,0,3.9644,3.9661,3.9692,3.9706,3.9721,3.9743,3.9758,3.9776,3.9792,3.9821,3.9833,3.9859,3.9881,3.992,3.9939,3.9964,3.9967,3.9978,3.997,3.9967,3.9967,3.9966,3.9968,3.9979,3.9979,3.9979,3.9979,0,3.9661,3.967,3.9693,3.9719,3.9738,3.9759,3.978,3.9791,3.9813,3.983,3.9856,3.9873,3.9907,3.9932,3.9959,3.9974,3.998,3.9982,3.9986,3.9982,3.9975,3.9979,3.9948,3.9981,3.9981,3.9981,3.998,3.998,3.9671,3.9687,3.9712,3.9737,3.9756,3.9776,3.9793,3.9811,3.9833,3.9862,3.9871,3.9899,3.9923,3.996,3.9975,3.9997,3.9996,4.0002,4.0004,4.0005,4.0005,3.9973,4.0002,4.0002,4.0002,4.0002,4.0002,0,3.9689,3.9707,3.973,3.976,3.978,3.9786,3.9811,3.9827,3.9851,3.9874,3.9895,3.9926,3.9952,3.9974,4.0001,4.0014,4.0018,4.002,4.0019,4.0023,4.0004,3.9997,4.0017,4.0017,4.0017,4.0017,4.0017,4.0017,3.9701,3.9728,3.9741,3.9778,3.9795,3.9823,3.9836,3.9856,3.9874,3.9908,3.993,3.9945,3.9967,3.9996,4.002,4.0026,4.0035,4.0037,4.0044,4.0025,4.0024,4.0022,4.0016,4.0039,4.0039,4.0061,4.0061,4.0061]}]]